CEB897 RPLL-RPVE

Flight info

Callsign CEB897
Flight time 0h 49m
Altitude 25000
Route VERDE4V VERDE W24 TAPER TAPER7B
Aircraft A320/M-SDE3FGHIRWY/LB1

Departure

Time 2026-04-25 13:36
Airport Ninoy Aquino International Airport (RPLL)

Arrival

Time 2026-04-25 14:26
Airport Godofredo P. Ramos Airport (RPVE)
Time Latitude Longitude Altitude Speed Heading
2026-04-25 12:50 14.52413 121.00733 69 ft 0 kts 45°
2026-04-25 13:17 14.52402 121.00722 60 ft 4 kts 45°
2026-04-25 13:17 14.52382 121.00702 69 ft 4 kts 45°
2026-04-25 13:17 14.52366 121.00687 61 ft 4 kts 54°
2026-04-25 13:17 14.52361 121.00664 69 ft 4 kts 110°
2026-04-25 13:18 14.52374 121.00643 66 ft 4 kts 135°
2026-04-25 13:18 14.52392 121.00625 60 ft 1 kts 135°
2026-04-25 13:20 14.52391 121.00626 69 ft 2 kts 135°
2026-04-25 13:20 14.52375 121.00642 62 ft 4 kts 135°
2026-04-25 13:20 14.52353 121.00665 61 ft 5 kts 135°
2026-04-25 13:21 14.52328 121.00691 62 ft 5 kts 135°
2026-04-25 13:21 14.52302 121.00718 69 ft 5 kts 135°
2026-04-25 13:21 14.52272 121.00749 67 ft 7 kts 135°
2026-04-25 13:21 14.52234 121.00778 62 ft 7 kts 164°
2026-04-25 13:22 14.52205 121.00768 69 ft 6 kts 216°
2026-04-25 13:22 14.52159 121.00766 69 ft 7 kts 143°
2026-04-25 13:22 14.52100 121.00822 66 ft 14 kts 135°
2026-04-25 13:23 14.51956 121.00971 62 ft 14 kts 136°
2026-04-25 13:23 14.51881 121.01048 67 ft 17 kts 134°
2026-04-25 13:23 14.51795 121.01138 64 ft 18 kts 135°
2026-04-25 13:23 14.51733 121.01202 59 ft 20 kts 136°
2026-04-25 13:24 14.51633 121.01302 68 ft 21 kts 135°
2026-04-25 13:24 14.51529 121.01410 64 ft 22 kts 135°
2026-04-25 13:24 14.51420 121.01523 66 ft 21 kts 135°
2026-04-25 13:24 14.51314 121.01632 62 ft 22 kts 135°
2026-04-25 13:25 14.51223 121.01728 62 ft 15 kts 134°
2026-04-25 13:25 14.51147 121.01806 69 ft 16 kts 135°
2026-04-25 13:25 14.51098 121.01855 62 ft 9 kts 136°
2026-04-25 13:25 14.51042 121.01913 69 ft 10 kts 135°
2026-04-25 13:26 14.51002 121.01907 69 ft 5 kts 215°
2026-04-25 13:26 14.50950 121.01825 69 ft 17 kts 241°
2026-04-25 13:26 14.50894 121.01724 61 ft 15 kts 240°
2026-04-25 13:26 14.50843 121.01633 68 ft 14 kts 240°
2026-04-25 13:27 14.50794 121.01545 66 ft 19 kts 240°
2026-04-25 13:27 14.50700 121.01376 63 ft 28 kts 240°
2026-04-25 13:27 14.50601 121.01199 64 ft 29 kts 240°
2026-04-25 13:27 14.50496 121.01010 64 ft 31 kts 240°
2026-04-25 13:28 14.50397 121.00830 65 ft 24 kts 240°
2026-04-25 13:28 14.50347 121.00743 64 ft 21 kts 239°
2026-04-25 13:28 14.50243 121.00556 61 ft 22 kts 241°
2026-04-25 13:28 14.50181 121.00444 68 ft 15 kts 239°
2026-04-25 13:29 14.50136 121.00364 60 ft 12 kts 240°
2026-04-25 13:29 14.50097 121.00295 68 ft 10 kts 240°
2026-04-25 13:29 14.50064 121.00235 61 ft 9 kts 240°
2026-04-25 13:30 14.50007 121.00132 59 ft 7 kts 240°
2026-04-25 13:30 14.50005 121.00128 69 ft 0 kts 240°
2026-04-25 13:31 14.50000 121.00118 69 ft 4 kts 240°
2026-04-25 13:31 14.49985 121.00091 64 ft 7 kts 240°
2026-04-25 13:32 14.49959 121.00044 62 ft 7 kts 240°
2026-04-25 13:32 14.49937 121.00004 69 ft 6 kts 239°
2026-04-25 13:32 14.49914 120.99973 64 ft 5 kts 221°
2026-04-25 13:32 14.49886 120.99966 69 ft 3 kts 180°
2026-04-25 13:33 14.49874 120.99970 69 ft 0 kts 159°
2026-04-25 13:34 14.49869 120.99972 69 ft 4 kts 159°
2026-04-25 13:34 14.49818 120.99998 61 ft 10 kts 143°
2026-04-25 13:34 14.49818 121.00065 66 ft 11 kts 62°
2026-04-25 13:34 14.49856 121.00136 59 ft 9 kts 59°
2026-04-25 13:35 14.49870 121.00160 69 ft 0 kts 58°
2026-04-25 13:35 14.49876 121.00169 69 ft 14 kts 58°
2026-04-25 13:36 14.50068 121.00515 62 ft 92 kts 60°
2026-04-25 13:36 14.50488 121.01269 68 ft 148 kts 60°
2026-04-25 13:36 14.51056 121.02264 430 ft 165 kts 62°
2026-04-25 13:36 14.51626 121.03300 1216 ft 165 kts 63°
2026-04-25 13:37 14.52173 121.04343 1930 ft 169 kts 63°
2026-04-25 13:37 14.52771 121.05463 2277 ft 187 kts 62°
2026-04-25 13:37 14.53453 121.06704 2597 ft 211 kts 62°
2026-04-25 13:37 14.54210 121.08104 2997 ft 235 kts 62°
2026-04-25 13:38 14.55038 121.09661 3489 ft 256 kts 62°
2026-04-25 13:38 14.55854 121.11331 4287 ft 263 kts 72°
2026-04-25 13:38 14.56029 121.13198 5058 ft 271 kts 99°
2026-04-25 13:38 14.55319 121.15002 5859 ft 277 kts 126°
2026-04-25 13:39 14.53984 121.16474 6619 ft 284 kts 137°
2026-04-25 13:39 14.52334 121.17575 6888 ft 285 kts 160°
2026-04-25 13:39 14.50379 121.17933 6978 ft 286 kts 175°
2026-04-25 13:39 14.48391 121.18054 6998 ft 286 kts 177°
2026-04-25 13:40 14.46399 121.18152 7004 ft 286 kts 177°
2026-04-25 13:40 14.44412 121.18244 7005 ft 286 kts 177°
2026-04-25 13:40 14.42447 121.18334 7007 ft 286 kts 177°
2026-04-25 13:40 14.40443 121.18371 7596 ft 290 kts 186°
2026-04-25 13:41 14.38528 121.17736 8426 ft 293 kts 211°
2026-04-25 13:41 14.36821 121.16546 9221 ft 297 kts 217°
2026-04-25 13:41 14.35135 121.15277 10053 ft 301 kts 217°
2026-04-25 13:41 14.33384 121.13949 10390 ft 323 kts 217°
2026-04-25 13:42 14.31512 121.12521 10600 ft 346 kts 217°
2026-04-25 13:42 14.29493 121.11084 11080 ft 357 kts 208°
2026-04-25 13:42 14.27130 121.10258 11725 ft 362 kts 189°
2026-04-25 13:42 14.24641 121.09987 12439 ft 364 kts 186°
2026-04-25 13:43 14.22105 121.09749 13177 ft 366 kts 185°
2026-04-25 13:43 14.19562 121.09520 13900 ft 367 kts 185°
2026-04-25 13:43 14.17004 121.09290 14487 ft 371 kts 185°
2026-04-25 13:43 14.14417 121.09056 15063 ft 374 kts 186°
2026-04-25 13:44 14.11838 121.08821 15648 ft 377 kts 186°
2026-04-25 13:44 14.09213 121.08578 16216 ft 380 kts 186°
2026-04-25 13:44 14.06558 121.08331 16744 ft 385 kts 186°
2026-04-25 13:44 14.03874 121.08085 17270 ft 388 kts 186°
2026-04-25 13:45 14.01169 121.07838 17811 ft 392 kts 186°
2026-04-25 13:45 13.98442 121.07587 18325 ft 395 kts 186°
2026-04-25 13:45 13.95688 121.07333 18788 ft 397 kts 186°
2026-04-25 13:45 13.92953 121.07082 19244 ft 400 kts 186°
2026-04-25 13:46 13.90167 121.06826 19717 ft 402 kts 186°
2026-04-25 13:46 13.87364 121.06570 20179 ft 404 kts 186°
2026-04-25 13:46 13.84550 121.06314 20647 ft 406 kts 186°
2026-04-25 13:46 13.81723 121.06058 21096 ft 408 kts 186°
2026-04-25 13:47 13.78879 121.05797 21532 ft 411 kts 186°
2026-04-25 13:47 13.76061 121.05536 21976 ft 413 kts 186°
2026-04-25 13:47 13.73192 121.05273 22412 ft 415 kts 186°
2026-04-25 13:47 13.70303 121.05008 22845 ft 417 kts 186°
2026-04-25 13:48 13.67401 121.04741 23275 ft 419 kts 186°
2026-04-25 13:48 13.64485 121.04473 23670 ft 422 kts 186°
2026-04-25 13:48 13.61553 121.04202 24013 ft 424 kts 186°
2026-04-25 13:48 13.58609 121.03931 24359 ft 426 kts 186°
2026-04-25 13:49 13.55680 121.03671 24686 ft 428 kts 185°
2026-04-25 13:49 13.52683 121.03765 24914 ft 433 kts 174°
2026-04-25 13:49 13.49731 121.04438 24973 ft 437 kts 163°
2026-04-25 13:49 13.46917 121.05692 24984 ft 442 kts 152°
2026-04-25 13:50 13.44337 121.07419 24986 ft 443 kts 147°
2026-04-25 13:50 13.41796 121.09219 24991 ft 444 kts 147°
2026-04-25 13:50 13.39285 121.10990 24984 ft 443 kts 147°
2026-04-25 13:50 13.36735 121.12778 24984 ft 443 kts 147°
2026-04-25 13:51 13.34183 121.14563 24991 ft 444 kts 147°
2026-04-25 13:51 13.31616 121.16358 24990 ft 444 kts 147°
2026-04-25 13:51 13.29072 121.18142 24991 ft 442 kts 147°
2026-04-25 13:51 13.26535 121.19923 24980 ft 440 kts 147°
2026-04-25 13:52 13.24043 121.21669 24977 ft 440 kts 147°
2026-04-25 13:52 13.21511 121.23443 24982 ft 440 kts 147°
2026-04-25 13:52 13.18977 121.25220 24981 ft 441 kts 147°
2026-04-25 13:52 13.16442 121.26997 24983 ft 441 kts 147°
2026-04-25 13:53 13.13899 121.28779 24982 ft 442 kts 147°
2026-04-25 13:53 13.11360 121.30558 24980 ft 441 kts 147°
2026-04-25 13:53 13.08818 121.32341 24980 ft 442 kts 147°
2026-04-25 13:53 13.06311 121.34099 24360 ft 439 kts 147°
2026-04-25 13:54 13.03771 121.35877 23495 ft 443 kts 147°
2026-04-25 13:54 13.01233 121.37654 22799 ft 439 kts 147°
2026-04-25 13:54 12.98728 121.39406 22210 ft 433 kts 147°
2026-04-25 13:54 12.96255 121.41137 21615 ft 427 kts 147°
2026-04-25 13:55 12.93812 121.42849 21073 ft 422 kts 147°
2026-04-25 13:55 12.91396 121.44539 20533 ft 416 kts 146°
2026-04-25 13:55 12.89043 121.46183 20029 ft 411 kts 146°
2026-04-25 13:55 12.86688 121.47826 19513 ft 407 kts 146°
2026-04-25 13:56 12.84362 121.49447 19014 ft 402 kts 146°
2026-04-25 13:56 12.82055 121.51055 18511 ft 399 kts 146°
2026-04-25 13:56 12.79765 121.52652 17934 ft 396 kts 146°
2026-04-25 13:56 12.77500 121.54234 17407 ft 392 kts 146°
2026-04-25 13:57 12.75251 121.55803 16876 ft 389 kts 146°
2026-04-25 13:57 12.74522 121.56312 16703 ft 388 kts 146°
2026-04-25 13:57 12.70828 121.58887 15812 ft 384 kts 146°
2026-04-25 13:57 12.68611 121.60432 15269 ft 383 kts 146°
2026-04-25 13:58 12.66410 121.61968 14724 ft 382 kts 146°
2026-04-25 13:58 12.64243 121.63480 14172 ft 381 kts 146°
2026-04-25 13:58 12.62051 121.65014 13598 ft 381 kts 146°
2026-04-25 13:58 12.59857 121.66547 13005 ft 379 kts 146°
2026-04-25 13:59 12.57680 121.68063 12443 ft 376 kts 146°
2026-04-25 13:59 12.55519 121.69564 11873 ft 374 kts 146°
2026-04-25 13:59 12.53395 121.71037 11295 ft 371 kts 146°
2026-04-25 13:59 12.51259 121.72521 10719 ft 369 kts 145°
2026-04-25 14:00 12.49840 121.73509 10552 ft 360 kts 145°
2026-04-25 14:00 12.47173 121.75369 10395 ft 340 kts 145°
2026-04-25 14:00 12.45252 121.76709 10278 ft 326 kts 145°
2026-04-25 14:00 12.43418 121.77988 10160 ft 313 kts 144°
2026-04-25 14:01 12.41645 121.79221 9985 ft 305 kts 144°
2026-04-25 14:01 12.39906 121.80431 9791 ft 301 kts 144°
2026-04-25 14:01 12.38197 121.81622 9388 ft 300 kts 144°
2026-04-25 14:01 12.36413 121.82716 9086 ft 297 kts 155°
2026-04-25 14:02 12.34462 121.83368 9009 ft 294 kts 163°
2026-04-25 14:02 12.32489 121.83946 9019 ft 294 kts 162°
2026-04-25 14:02 12.30522 121.84533 9019 ft 294 kts 162°
2026-04-25 14:02 12.29878 121.84726 9020 ft 294 kts 162°
2026-04-25 14:03 12.26606 121.85713 9016 ft 294 kts 162°
2026-04-25 14:03 12.24640 121.86304 9021 ft 294 kts 162°
2026-04-25 14:03 12.22669 121.86893 9018 ft 295 kts 162°
2026-04-25 14:03 12.20699 121.87480 9017 ft 295 kts 162°
2026-04-25 14:04 12.18728 121.88067 8962 ft 295 kts 162°
2026-04-25 14:04 12.16752 121.88654 8545 ft 296 kts 162°
2026-04-25 14:04 12.14778 121.89240 8151 ft 294 kts 162°
2026-04-25 14:04 12.12816 121.89824 7781 ft 292 kts 162°
2026-04-25 14:05 12.10887 121.90395 7556 ft 283 kts 162°
2026-04-25 14:05 12.09055 121.90936 7433 ft 271 kts 161°
2026-04-25 14:05 12.07280 121.91461 7317 ft 259 kts 161°
2026-04-25 14:05 12.05583 121.91963 7196 ft 248 kts 161°
2026-04-25 14:06 12.03950 121.92398 7091 ft 239 kts 171°
2026-04-25 14:06 12.02302 121.92218 7009 ft 241 kts 200°
2026-04-25 14:06 12.00923 121.91249 7010 ft 245 kts 229°
2026-04-25 14:06 12.00165 121.89727 7011 ft 246 kts 259°
2026-04-25 14:07 12.00225 121.87995 7013 ft 245 kts 290°
2026-04-25 14:07 12.01084 121.86526 7010 ft 241 kts 319°
2026-04-25 14:07 12.02492 121.85653 6953 ft 237 kts 345°
2026-04-25 14:07 12.04072 121.85151 6838 ft 236 kts 347°
2026-04-25 14:08 12.05646 121.84679 6719 ft 236 kts 347°
2026-04-25 14:08 12.07219 121.84211 6603 ft 235 kts 347°
2026-04-25 14:08 12.08769 121.83750 6494 ft 235 kts 347°
2026-04-25 14:08 12.10366 121.83564 6380 ft 228 kts 10°
2026-04-25 14:09 12.11826 121.84084 6080 ft 221 kts 37°
2026-04-25 14:09 12.12882 121.85180 5768 ft 216 kts 61°
2026-04-25 14:09 12.13366 121.86610 5469 ft 213 kts 85°
2026-04-25 14:09 12.13386 121.87120 5370 ft 213 kts 92°
2026-04-25 14:10 12.12457 121.89393 5030 ft 215 kts 131°
2026-04-25 14:10 12.11217 121.90248 5014 ft 222 kts 155°
2026-04-25 14:10 12.09742 121.90761 5015 ft 225 kts 159°
2026-04-25 14:10 12.08236 121.91218 5014 ft 226 kts 160°
2026-04-25 14:11 12.06721 121.91662 5011 ft 226 kts 160°
2026-04-25 14:11 12.05209 121.92103 5011 ft 226 kts 159°
2026-04-25 14:11 12.03666 121.92434 5006 ft 230 kts 177°
2026-04-25 14:11 12.02612 121.92249 5008 ft 236 kts 198°
2026-04-25 14:12 12.01291 121.91249 5013 ft 242 kts 233°
2026-04-25 14:12 12.00710 121.89649 5010 ft 244 kts 269°
2026-04-25 14:12 12.01067 121.88009 5011 ft 240 kts 304°
2026-04-25 14:12 12.02215 121.86838 5014 ft 232 kts 337°
2026-04-25 14:13 12.03714 121.86302 5013 ft 229 kts 348°
2026-04-25 14:13 12.05252 121.85841 5012 ft 230 kts 348°
2026-04-25 14:13 12.07289 121.85231 5011 ft 230 kts 348°
2026-04-25 14:13 12.08326 121.84917 5010 ft 230 kts 348°
2026-04-25 14:14 12.09882 121.84655 5010 ft 223 kts 10°
2026-04-25 14:14 12.11300 121.85162 5013 ft 215 kts 39°
2026-04-25 14:14 12.12261 121.86286 5013 ft 210 kts 66°
2026-04-25 14:14 12.12574 121.87712 4972 ft 211 kts 92°
2026-04-25 14:15 12.12161 121.89156 4842 ft 213 kts 120°
2026-04-25 14:15 12.11526 121.89918 4766 ft 216 kts 138°
2026-04-25 14:15 12.09681 121.90753 4605 ft 222 kts 159°
2026-04-25 14:15 12.08192 121.91206 4482 ft 223 kts 159°
2026-04-25 14:16 12.06698 121.91644 4365 ft 230 kts 162°
2026-04-25 14:16 12.04949 121.91665 4244 ft 270 kts 192°
2026-04-25 14:16 12.03266 121.90713 4122 ft 284 kts 218°
2026-04-25 14:16 12.01913 121.89232 4004 ft 287 kts 231°
2026-04-25 14:17 12.00762 121.87550 4004 ft 288 kts 236°
2026-04-25 14:17 11.99703 121.85837 4006 ft 289 kts 236°
2026-04-25 14:17 11.98634 121.84097 4007 ft 289 kts 236°
2026-04-25 14:17 11.97540 121.82370 4010 ft 289 kts 235°
2026-04-25 14:18 11.96423 121.80665 4011 ft 289 kts 234°
2026-04-25 14:18 11.95283 121.78967 4011 ft 289 kts 233°
2026-04-25 14:18 11.94133 121.77279 4009 ft 290 kts 233°
2026-04-25 14:18 11.92943 121.75648 4006 ft 289 kts 224°
2026-04-25 14:19 11.91300 121.74519 4008 ft 283 kts 197°
2026-04-25 14:19 11.89452 121.74215 4004 ft 257 kts 172°
2026-04-25 14:19 11.87810 121.74623 4002 ft 232 kts 149°
2026-04-25 14:19 11.86420 121.75343 4003 ft 217 kts 147°
2026-04-25 14:20 11.85114 121.76020 4005 ft 203 kts 145°
2026-04-25 14:20 11.84407 121.76569 4021 ft 183 kts 124°
2026-04-25 14:20 11.83926 121.78024 4003 ft 149 kts 84°
2026-04-25 14:20 11.84218 121.78996 3763 ft 146 kts 63°
2026-04-25 14:21 11.84689 121.79917 3441 ft 145 kts 64°
2026-04-25 14:21 11.85150 121.80835 3137 ft 145 kts 64°
2026-04-25 14:21 11.85606 121.81743 2892 ft 141 kts 64°
2026-04-25 14:21 11.86043 121.82612 2706 ft 138 kts 64°
2026-04-25 14:22 11.86477 121.83476 2538 ft 135 kts 65°
2026-04-25 14:22 11.86906 121.84327 2351 ft 134 kts 64°
2026-04-25 14:22 11.87332 121.85172 2162 ft 134 kts 64°
2026-04-25 14:22 11.87757 121.86018 1983 ft 134 kts 63°
2026-04-25 14:23 11.88179 121.86858 1804 ft 133 kts 63°
2026-04-25 14:23 11.88600 121.87700 1630 ft 133 kts 63°
2026-04-25 14:23 11.89021 121.88542 1441 ft 134 kts 62°
2026-04-25 14:23 11.89442 121.89382 1271 ft 133 kts 62°
2026-04-25 14:24 11.89854 121.90208 1101 ft 132 kts 61°
2026-04-25 14:24 11.90271 121.91039 939 ft 131 kts 63°
2026-04-25 14:24 11.90689 121.91870 760 ft 131 kts 62°
2026-04-25 14:24 11.91089 121.92708 556 ft 132 kts 64°
2026-04-25 14:25 11.91507 121.93550 378 ft 134 kts 61°
2026-04-25 14:25 11.91945 121.94389 204 ft 133 kts 63°
2026-04-25 14:25 11.92370 121.95224 40 ft 129 kts 63°
2026-04-25 14:25 11.92621 121.95723 26 ft 102 kts 63°
2026-04-25 14:26 11.92849 121.96175 26 ft 34 kts 62°
2026-04-25 14:26 11.92939 121.96362 26 ft 20 kts 64°
2026-04-25 14:26 11.92966 121.96448 24 ft 10 kts 111°
2026-04-25 14:26 11.92912 121.96484 30 ft 8 kts 154°
2026-04-25 14:27 11.92868 121.96507 28 ft 6 kts 153°
2026-04-25 14:27 11.92833 121.96525 26 ft 5 kts 154°
2026-04-25 14:27 11.92803 121.96523 26 ft 4 kts 210°
2026-04-25 14:27 11.92778 121.96481 26 ft 13 kts 244°
2026-04-25 14:28 11.92745 121.96414 26 ft 9 kts 243°
2026-04-25 14:28 11.92721 121.96393 26 ft 3 kts 179°
2026-04-25 14:28 11.92702 121.96399 26 ft 3 kts 157°
2026-04-25 14:28 11.92692 121.96404 26 ft 1 kts 154°
2026-04-25 14:29 11.92690 121.96405 26 ft 0 kts 154°